OSE125 LIRA-LIMJ

Flight info

Callsign OSE125
Flight time 1h 10m
Altitude 14000
Route GILIO DCT ELB DCT BETEN DCT SPEZI M729 IDONA
Aircraft DHC7/M-SDE2E3FGRY/S

Departure

Time 2026-05-04 12:35
Airport Ciampino–G. B. Pastine International Airport (LIRA)

Arrival

Time 2026-05-04 13:45
Airport Genoa Cristoforo Colombo Airport (LIMJ)
Time Latitude Longitude Altitude Speed Heading
2026-05-04 12:29 41.80535 12.58512 344 ft 0 kts 263°
2026-05-04 12:30 41.80535 12.58509 344 ft 1 kts 268°
2026-05-04 12:30 41.80564 12.58514 343 ft 7 kts 37°
2026-05-04 12:30 41.80619 12.58568 343 ft 11 kts 41°
2026-05-04 12:31 41.80660 12.58625 341 ft 0 kts 41°
2026-05-04 12:32 41.80669 12.58634 341 ft 5 kts 38°
2026-05-04 12:33 41.80709 12.58684 340 ft 9 kts 53°
2026-05-04 12:33 41.80743 12.58770 341 ft 11 kts 59°
2026-05-04 12:33 41.80764 12.58877 343 ft 12 kts 101°
2026-05-04 12:33 41.80679 12.58969 347 ft 35 kts 153°
2026-05-04 12:34 41.80252 12.59266 365 ft 97 kts 153°
2026-05-04 12:34 41.79547 12.59732 505 ft 121 kts 154°
2026-05-04 12:34 41.78722 12.60183 705 ft 132 kts 154°
2026-05-04 12:34 41.77912 12.60751 991 ft 134 kts 152°
2026-05-04 12:35 41.77060 12.61353 1258 ft 146 kts 151°
2026-05-04 12:35 41.76105 12.62039 1476 ft 167 kts 151°
2026-05-04 12:35 41.75034 12.62810 1798 ft 180 kts 151°
2026-05-04 12:35 41.73838 12.63430 2072 ft 192 kts 176°
2026-05-04 12:36 41.72573 12.62843 2351 ft 203 kts 214°
2026-05-04 12:36 41.71440 12.61690 2632 ft 210 kts 230°
2026-05-04 12:36 41.71041 12.59813 2881 ft 221 kts 275°
2026-05-04 12:36 41.71715 12.57993 3139 ft 226 kts 317°
2026-05-04 12:37 41.73103 12.57033 3444 ft 224 kts 335°
2026-05-04 12:37 41.74121 12.55517 3719 ft 226 kts 289°
2026-05-04 12:37 41.74342 12.53456 4055 ft 223 kts 277°
2026-05-04 12:37 41.74603 12.51407 4351 ft 224 kts 279°
2026-05-04 12:38 41.74908 12.49392 4634 ft 225 kts 281°
2026-05-04 12:38 41.75261 12.47357 4923 ft 225 kts 282°
2026-05-04 12:38 41.75648 12.45316 5211 ft 225 kts 283°
2026-05-04 12:38 41.76059 12.43294 5484 ft 226 kts 284°
2026-05-04 12:39 41.76483 12.41272 5762 ft 226 kts 284°
2026-05-04 12:39 41.76919 12.39258 6049 ft 227 kts 284°
2026-05-04 12:39 41.77369 12.37213 6329 ft 228 kts 285°
2026-05-04 12:39 41.77819 12.35195 6633 ft 227 kts 285°
2026-05-04 12:40 41.78262 12.33163 6920 ft 227 kts 283°
2026-05-04 12:40 41.78700 12.31147 7217 ft 226 kts 284°
2026-05-04 12:40 41.79145 12.29127 7493 ft 227 kts 284°
2026-05-04 12:40 41.79600 12.27106 7770 ft 227 kts 284°
2026-05-04 12:41 41.80052 12.25103 8048 ft 226 kts 284°
2026-05-04 12:41 41.80497 12.23082 8338 ft 225 kts 282°
2026-05-04 12:41 41.80872 12.21059 8605 ft 225 kts 282°
2026-05-04 12:41 41.81260 12.19017 8874 ft 225 kts 281°
2026-05-04 12:42 41.81649 12.16988 9149 ft 225 kts 282°
2026-05-04 12:42 41.82035 12.14971 9414 ft 226 kts 282°
2026-05-04 12:42 41.82428 12.12913 9684 ft 226 kts 282°
2026-05-04 12:42 41.82817 12.10875 9958 ft 226 kts 282°
2026-05-04 12:43 41.83208 12.08850 10236 ft 227 kts 282°
2026-05-04 12:43 41.83608 12.06811 10505 ft 227 kts 282°
2026-05-04 12:43 41.84008 12.04772 10769 ft 226 kts 282°
2026-05-04 12:43 41.84407 12.02736 11039 ft 226 kts 282°
2026-05-04 12:44 41.84809 12.00703 11309 ft 226 kts 282°
2026-05-04 12:44 41.85207 11.98671 11572 ft 226 kts 282°
2026-05-04 12:44 41.85601 11.96640 11838 ft 225 kts 282°
2026-05-04 12:44 41.85998 11.94611 12100 ft 225 kts 282°
2026-05-04 12:45 41.86388 11.92591 12370 ft 225 kts 282°
2026-05-04 12:45 41.86781 11.90569 12585 ft 227 kts 282°
2026-05-04 12:45 41.87189 11.88498 12747 ft 231 kts 282°
2026-05-04 12:45 41.87605 11.86392 12905 ft 235 kts 282°
2026-05-04 12:46 41.88020 11.84275 13060 ft 238 kts 282°
2026-05-04 12:46 41.88434 11.82126 13215 ft 239 kts 282°
2026-05-04 12:46 41.88849 11.79963 13365 ft 241 kts 282°
2026-05-04 12:46 41.89269 11.77788 13517 ft 241 kts 282°
2026-05-04 12:47 41.89691 11.75610 13669 ft 242 kts 282°
2026-05-04 12:47 41.90118 11.73406 13821 ft 243 kts 282°
2026-05-04 12:47 41.90536 11.71221 13962 ft 244 kts 282°
2026-05-04 12:47 41.90966 11.68978 14001 ft 250 kts 282°
2026-05-04 12:48 41.91406 11.66709 13993 ft 256 kts 282°
2026-05-04 12:48 41.91849 11.64411 14057 ft 257 kts 282°
2026-05-04 12:48 41.92564 11.62177 14082 ft 265 kts 307°
2026-05-04 12:48 41.94089 11.60814 14136 ft 270 kts 338°
2026-05-04 12:49 41.95858 11.59942 14152 ft 272 kts 339°
2026-05-04 12:49 41.97642 11.59052 14147 ft 275 kts 337°
2026-05-04 12:49 41.99351 11.57864 14141 ft 277 kts 327°
2026-05-04 12:49 42.00925 11.56364 14142 ft 278 kts 320°
2026-05-04 12:50 42.02398 11.54670 14142 ft 279 kts 316°
2026-05-04 12:50 42.03795 11.52861 14139 ft 280 kts 313°
2026-05-04 12:50 42.05141 11.50970 14142 ft 281 kts 311°
2026-05-04 12:50 42.06467 11.49019 14144 ft 284 kts 310°
2026-05-04 12:51 42.07779 11.47021 14132 ft 287 kts 309°
2026-05-04 12:51 42.09082 11.44991 14133 ft 288 kts 309°
2026-05-04 12:51 42.10382 11.42942 14127 ft 290 kts 309°
2026-05-04 12:51 42.11692 11.40904 14122 ft 286 kts 309°
2026-05-04 12:52 42.12985 11.38856 14125 ft 285 kts 309°
2026-05-04 12:52 42.14257 11.36829 14125 ft 285 kts 308°
2026-05-04 12:52 42.15524 11.34786 14127 ft 285 kts 307°
2026-05-04 12:52 42.16772 11.32704 14127 ft 284 kts 307°
2026-05-04 12:53 42.18005 11.30663 14122 ft 283 kts 307°
2026-05-04 12:53 42.19245 11.28618 14125 ft 283 kts 307°
2026-05-04 12:53 42.20495 11.26566 14121 ft 283 kts 307°
2026-05-04 12:53 42.21753 11.24506 14119 ft 282 kts 307°
2026-05-04 12:54 42.23000 11.22468 14119 ft 282 kts 307°
2026-05-04 12:54 42.24235 11.20447 14124 ft 282 kts 307°
2026-05-04 12:54 42.25481 11.18411 14125 ft 282 kts 307°
2026-05-04 12:54 42.26738 11.16358 14121 ft 282 kts 307°
2026-05-04 12:55 42.27984 11.14319 14116 ft 282 kts 307°
2026-05-04 12:55 42.29230 11.12281 14121 ft 282 kts 307°
2026-05-04 12:55 42.30476 11.10238 14123 ft 282 kts 307°
2026-05-04 12:55 42.31730 11.08184 14117 ft 282 kts 307°
2026-05-04 12:56 42.32972 11.06147 14121 ft 282 kts 307°
2026-05-04 12:56 42.34224 11.04093 14121 ft 282 kts 307°
2026-05-04 12:56 42.35475 11.02045 14117 ft 282 kts 307°
2026-05-04 12:56 42.36710 11.00014 14121 ft 282 kts 307°
2026-05-04 12:57 42.37600 10.97709 14102 ft 277 kts 284°
2026-05-04 12:57 42.38362 10.95329 14121 ft 276 kts 295°
2026-05-04 12:57 42.39184 10.93021 14118 ft 274 kts 294°
2026-05-04 12:57 42.40044 10.90720 14109 ft 274 kts 298°
2026-05-04 12:58 42.41077 10.88561 14117 ft 273 kts 300°
2026-05-04 12:58 42.42101 10.86393 14114 ft 272 kts 301°
2026-05-04 12:58 42.43123 10.84248 14117 ft 272 kts 301°
2026-05-04 12:58 42.44149 10.82110 14119 ft 272 kts 302°
2026-05-04 12:59 42.45486 10.80257 14119 ft 273 kts 316°
2026-05-04 12:59 42.46853 10.78511 14104 ft 273 kts 319°
2026-05-04 12:59 42.48495 10.77221 14117 ft 272 kts 325°
2026-05-04 12:59 42.49691 10.75291 14135 ft 268 kts 299°
2026-05-04 13:00 42.50695 10.73171 14128 ft 269 kts 301°
2026-05-04 13:00 42.51716 10.71013 14123 ft 270 kts 301°
2026-05-04 13:00 42.52728 10.68879 14120 ft 270 kts 301°
2026-05-04 13:00 42.53739 10.66741 14117 ft 271 kts 301°
2026-05-04 13:01 42.54761 10.64597 14119 ft 271 kts 301°
2026-05-04 13:01 42.55781 10.62446 14121 ft 271 kts 301°
2026-05-04 13:01 42.56799 10.60298 14120 ft 271 kts 301°
2026-05-04 13:01 42.57822 10.58156 14119 ft 272 kts 301°
2026-05-04 13:02 42.58844 10.56009 14118 ft 272 kts 301°
2026-05-04 13:02 42.59870 10.53864 14120 ft 272 kts 301°
2026-05-04 13:02 42.60905 10.51693 14116 ft 273 kts 301°
2026-05-04 13:02 42.62083 10.49673 14118 ft 274 kts 308°
2026-05-04 13:03 42.63288 10.47686 14119 ft 274 kts 308°
2026-05-04 13:03 42.64508 10.45684 14121 ft 274 kts 308°
2026-05-04 13:03 42.65861 10.43864 14117 ft 275 kts 316°
2026-05-04 13:03 42.67256 10.42104 14123 ft 275 kts 316°
2026-05-04 13:04 42.68664 10.40333 14120 ft 275 kts 316°
2026-05-04 13:04 42.70059 10.38569 14122 ft 276 kts 316°
2026-05-04 13:04 42.71472 10.36810 14117 ft 276 kts 319°
2026-05-04 13:04 42.73069 10.35370 14116 ft 277 kts 330°
2026-05-04 13:05 42.74762 10.34079 14117 ft 277 kts 332°
2026-05-04 13:05 42.76456 10.32879 14117 ft 277 kts 331°
2026-05-04 13:05 42.78173 10.31656 14118 ft 277 kts 331°
2026-05-04 13:05 42.79882 10.30440 14118 ft 278 kts 331°
2026-05-04 13:06 42.81592 10.29218 14118 ft 278 kts 331°
2026-05-04 13:06 42.83305 10.27989 14118 ft 279 kts 331°
2026-05-04 13:06 42.85019 10.26753 14119 ft 279 kts 331°
2026-05-04 13:06 42.86731 10.25521 14118 ft 280 kts 331°
2026-05-04 13:07 42.88456 10.24285 14119 ft 280 kts 331°
2026-05-04 13:07 42.90195 10.23032 14113 ft 280 kts 331°
2026-05-04 13:07 42.91914 10.21787 14120 ft 280 kts 331°
2026-05-04 13:07 42.93621 10.20548 14116 ft 281 kts 331°
2026-05-04 13:08 42.95345 10.19287 14118 ft 281 kts 331°
2026-05-04 13:08 42.97081 10.18021 14117 ft 281 kts 332°
2026-05-04 13:08 42.98797 10.16764 14118 ft 281 kts 331°
2026-05-04 13:08 43.00515 10.15506 14119 ft 282 kts 331°
2026-05-04 13:09 43.02253 10.14231 14114 ft 282 kts 331°
2026-05-04 13:09 43.03984 10.12964 14124 ft 281 kts 331°
2026-05-04 13:09 43.05703 10.11709 14122 ft 282 kts 331°
2026-05-04 13:09 43.07434 10.10454 14123 ft 282 kts 331°
2026-05-04 13:10 43.09171 10.09197 14122 ft 282 kts 332°
2026-05-04 13:10 43.10909 10.07934 14115 ft 283 kts 331°
2026-05-04 13:10 43.12622 10.06686 14114 ft 283 kts 331°
2026-05-04 13:10 43.14366 10.05420 14112 ft 283 kts 331°
2026-05-04 13:11 43.16102 10.04164 14115 ft 283 kts 331°
2026-05-04 13:11 43.17840 10.02909 14109 ft 283 kts 331°
2026-05-04 13:11 43.19581 10.01658 14108 ft 283 kts 332°
2026-05-04 13:11 43.21321 10.00408 14113 ft 283 kts 332°
2026-05-04 13:12 43.23065 9.99151 14112 ft 283 kts 331°
2026-05-04 13:12 43.24833 9.97885 14114 ft 283 kts 332°
2026-05-04 13:12 43.26572 9.96633 14103 ft 283 kts 332°
2026-05-04 13:12 43.28311 9.95387 14118 ft 283 kts 331°
2026-05-04 13:13 43.30047 9.94149 14114 ft 283 kts 331°
2026-05-04 13:13 43.31810 9.92897 14112 ft 283 kts 331°
2026-05-04 13:13 43.33549 9.91662 14113 ft 284 kts 332°
2026-05-04 13:13 43.35310 9.90414 14108 ft 284 kts 331°
2026-05-04 13:14 43.37053 9.89183 14106 ft 283 kts 332°
2026-05-04 13:14 43.38813 9.87940 14105 ft 283 kts 332°
2026-05-04 13:14 43.40560 9.86700 14107 ft 283 kts 332°
2026-05-04 13:14 43.42303 9.85464 14023 ft 287 kts 332°
2026-05-04 13:15 43.44101 9.84199 13856 ft 294 kts 332°
2026-05-04 13:15 43.45939 9.82904 13698 ft 300 kts 332°
2026-05-04 13:15 43.47810 9.81582 13536 ft 305 kts 332°
2026-05-04 13:15 43.49710 9.80248 13375 ft 309 kts 332°
2026-05-04 13:16 43.51654 9.78887 13206 ft 312 kts 332°
2026-05-04 13:16 43.53558 9.77551 13031 ft 303 kts 332°
2026-05-04 13:16 43.55389 9.76267 12836 ft 290 kts 332°
2026-05-04 13:16 43.57150 9.75036 12645 ft 280 kts 332°
2026-05-04 13:17 43.58850 9.73850 12492 ft 270 kts 332°
2026-05-04 13:17 43.60515 9.72680 12368 ft 268 kts 332°
2026-05-04 13:17 43.62177 9.71509 12241 ft 266 kts 332°
2026-05-04 13:17 43.63824 9.70350 12116 ft 264 kts 332°
2026-05-04 13:18 43.65449 9.69209 11983 ft 262 kts 332°
2026-05-04 13:18 43.67073 9.68071 11863 ft 260 kts 332°
2026-05-04 13:18 43.68664 9.66955 11744 ft 259 kts 332°
2026-05-04 13:18 43.70266 9.65834 11619 ft 258 kts 332°
2026-05-04 13:19 43.71883 9.64703 11493 ft 257 kts 332°
2026-05-04 13:19 43.73463 9.63599 11372 ft 256 kts 332°
2026-05-04 13:19 43.75060 9.62487 11254 ft 255 kts 332°
2026-05-04 13:19 43.76635 9.61396 11135 ft 254 kts 332°
2026-05-04 13:20 43.78202 9.60310 11105 ft 250 kts 332°
2026-05-04 13:20 43.79748 9.59239 11104 ft 245 kts 332°
2026-05-04 13:20 43.81265 9.58191 11102 ft 241 kts 332°
2026-05-04 13:20 43.82750 9.57161 11105 ft 238 kts 332°
2026-05-04 13:21 43.84225 9.56137 11108 ft 237 kts 332°
2026-05-04 13:21 43.85692 9.55116 11111 ft 238 kts 332°
2026-05-04 13:21 43.87176 9.54046 11113 ft 239 kts 329°
2026-05-04 13:21 43.88614 9.52917 11118 ft 240 kts 329°
2026-05-04 13:22 43.90075 9.51779 11115 ft 242 kts 329°
2026-05-04 13:22 43.91539 9.50640 11114 ft 242 kts 329°
2026-05-04 13:22 43.93010 9.49503 11115 ft 243 kts 329°
2026-05-04 13:22 43.94503 9.48350 11115 ft 244 kts 329°
2026-05-04 13:23 43.95988 9.47204 11114 ft 244 kts 329°
2026-05-04 13:23 43.97477 9.46056 11112 ft 245 kts 329°
2026-05-04 13:23 43.98966 9.44905 11115 ft 245 kts 329°
2026-05-04 13:23 44.00452 9.43755 11113 ft 245 kts 329°
2026-05-04 13:24 44.01939 9.42600 11114 ft 245 kts 329°
2026-05-04 13:24 44.03431 9.41441 11113 ft 246 kts 329°
2026-05-04 13:24 44.04908 9.40292 11115 ft 246 kts 329°
2026-05-04 13:25 44.07907 9.37973 11113 ft 245 kts 331°
2026-05-04 13:25 44.09524 9.37491 11066 ft 236 kts
2026-05-04 13:25 44.11095 9.37749 11090 ft 223 kts
2026-05-04 13:25 44.12645 9.37990 10832 ft 226 kts
2026-05-04 13:26 44.14217 9.38180 10581 ft 228 kts 355°
2026-05-04 13:26 44.15756 9.37717 10352 ft 227 kts 346°
2026-05-04 13:26 44.17299 9.37221 10111 ft 228 kts 346°
2026-05-04 13:26 44.18846 9.36714 9869 ft 228 kts 345°
2026-05-04 13:27 44.20211 9.35683 9615 ft 225 kts 317°
2026-05-04 13:27 44.21408 9.34287 9387 ft 224 kts 317°
2026-05-04 13:27 44.22602 9.32895 9139 ft 225 kts 317°
2026-05-04 13:27 44.23800 9.31489 8889 ft 225 kts 317°
2026-05-04 13:28 44.24896 9.29949 8643 ft 224 kts 308°
2026-05-04 13:28 44.25922 9.28350 8403 ft 224 kts 309°
2026-05-04 13:28 44.26969 9.26715 8153 ft 224 kts 309°
2026-05-04 13:28 44.28001 9.25097 7906 ft 224 kts 309°
2026-05-04 13:29 44.29025 9.23478 7663 ft 223 kts 309°
2026-05-04 13:29 44.30047 9.21850 7415 ft 223 kts 309°
2026-05-04 13:29 44.31062 9.20210 7171 ft 222 kts 307°
2026-05-04 13:29 44.31550 9.18229 6895 ft 218 kts 264°
2026-05-04 13:30 44.31034 9.16329 6680 ft 211 kts 233°
2026-05-04 13:30 44.30072 9.14808 6439 ft 210 kts 228°
2026-05-04 13:30 44.29449 9.12955 6180 ft 212 kts 246°
2026-05-04 13:30 44.28900 9.11049 5935 ft 212 kts 245°
2026-05-04 13:31 44.28361 9.09134 5685 ft 213 kts 245°
2026-05-04 13:31 44.27819 9.07218 5435 ft 213 kts 246°
2026-05-04 13:31 44.27424 9.05214 5153 ft 217 kts 266°
2026-05-04 13:31 44.27430 9.03129 4921 ft 215 kts 267°
2026-05-04 13:32 44.27423 9.01045 4667 ft 215 kts 268°
2026-05-04 13:32 44.27427 8.98978 4420 ft 215 kts 267°
2026-05-04 13:32 44.27439 8.96888 4170 ft 215 kts 268°
2026-05-04 13:32 44.27455 8.94797 3920 ft 215 kts 268°
2026-05-04 13:33 44.27469 8.92726 3674 ft 215 kts 268°
2026-05-04 13:33 44.27479 8.90641 3423 ft 215 kts 268°
2026-05-04 13:33 44.27489 8.88554 3170 ft 215 kts 268°
2026-05-04 13:33 44.27498 8.86476 2924 ft 214 kts 268°
2026-05-04 13:34 44.27505 8.84430 2685 ft 212 kts 268°
2026-05-04 13:34 44.27513 8.82369 2433 ft 211 kts 268°
2026-05-04 13:34 44.27525 8.80321 2184 ft 211 kts 268°
2026-05-04 13:34 44.27534 8.78269 1931 ft 212 kts 268°
2026-05-04 13:35 44.27432 8.76239 1684 ft 210 kts 262°
2026-05-04 13:35 44.27216 8.72554 1898 ft 167 kts 263°
2026-05-04 13:35 44.27146 8.71017 2102 ft 155 kts 263°
2026-05-04 13:36 44.27104 8.69560 2336 ft 148 kts 274°
2026-05-04 13:36 44.27273 8.68194 2564 ft 139 kts 277°
2026-05-04 13:36 44.27437 8.66905 2762 ft 130 kts 278°
2026-05-04 13:36 44.27593 8.65694 2876 ft 126 kts 278°
2026-05-04 13:37 44.27745 8.64477 2926 ft 127 kts 278°
2026-05-04 13:37 44.27898 8.63249 2979 ft 128 kts 278°
2026-05-04 13:37 44.28045 8.62045 3058 ft 126 kts 278°
2026-05-04 13:37 44.28141 8.61248 3094 ft 126 kts 278°
2026-05-04 13:38 44.28339 8.59577 3329 ft 138 kts 278°
2026-05-04 13:38 44.28502 8.58144 3470 ft 165 kts 278°
2026-05-04 13:38 44.28993 8.56537 3430 ft 200 kts 316°
2026-05-04 13:38 44.30202 8.55762 3470 ft 191 kts 356°
2026-05-04 13:39 44.31461 8.56243 2727 ft 204 kts 30°
2026-05-04 13:39 44.32785 8.57155 2048 ft 210 kts 31°
2026-05-04 13:39 44.34012 8.58189 1817 ft 192 kts 42°
2026-05-04 13:39 44.34967 8.59393 1346 ft 195 kts 46°
2026-05-04 13:40 44.35885 8.60718 1097 ft 184 kts 49°
2026-05-04 13:40 44.36678 8.61900 1233 ft 155 kts 53°
2026-05-04 13:40 44.37270 8.63101 892 ft 143 kts 59°
2026-05-04 13:40 44.37719 8.64168 816 ft 115 kts 59°
2026-05-04 13:41 44.38256 8.65098 590 ft 127 kts 52°
2026-05-04 13:41 44.38843 8.65977 976 ft 122 kts 46°
2026-05-04 13:41 44.39455 8.66965 1051 ft 140 kts 58°
2026-05-04 13:42 44.40518 8.69263 1539 ft 143 kts 66°
2026-05-04 13:42 44.40941 8.70573 1403 ft 153 kts 72°
2026-05-04 13:42 44.41309 8.72006 1353 ft 155 kts 74°
2026-05-04 13:42 44.41645 8.73419 1427 ft 154 kts 73°
2026-05-04 13:43 44.42044 8.74818 1230 ft 154 kts 70°
2026-05-04 13:43 44.42280 8.76055 1219 ft 123 kts 81°
2026-05-04 13:43 44.42341 8.77272 1000 ft 128 kts 91°
2026-05-04 13:43 44.42228 8.78502 758 ft 125 kts 100°
2026-05-04 13:44 44.42061 8.79637 561 ft 117 kts 103°
2026-05-04 13:44 44.41880 8.80730 335 ft 115 kts 102°
2026-05-04 13:44 44.41673 8.81829 179 ft 116 kts 106°
2026-05-04 13:44 44.41457 8.82870 31 ft 102 kts 106°
2026-05-04 13:45 44.41325 8.83530 16 ft 13 kts 99°
2026-05-04 13:45 44.41323 8.83562 16 ft 0 kts 93°
2026-05-04 13:45 44.41320 8.83586 16 ft 4 kts 109°
2026-05-04 13:45 44.41307 8.83649 16 ft 8 kts 105°
2026-05-04 13:46 44.41301 8.83742 16 ft 10 kts 82°
2026-05-04 13:46 44.41370 8.83746 16 ft 12 kts
2026-05-04 13:46 44.41415 8.83840 16 ft 13 kts 91°
2026-05-04 13:46 44.41394 8.83970 17 ft 14 kts 108°
2026-05-04 13:47 44.41369 8.84111 16 ft 15 kts 92°
2026-05-04 13:47 44.41337 8.84256 16 ft 16 kts 112°
2026-05-04 13:47 44.41322 8.84406 18 ft 14 kts 74°
2026-05-04 13:47 44.41393 8.84463 20 ft 14 kts 334°
2026-05-04 13:48 44.41430 8.84426 19 ft 0 kts 323°